Weather History for KMJQ - June, 2013

Change the Weather History Date:

Monday, June 24, 2013

  Actual Average (KEST) Record (KEST)
Temperature  
Mean Temperature 70 °F 70 °F  
Max Temperature 78 °F 82 °F - ()
Min Temperature 62 °F 59 °F - ()
Degree Days  
Heating Degree Days 0 0  
Month to date heating degree days 40  
Since 1 June heating degree days 40  
Since 1 July heating degree days 7738  
Cooling Degree Days 5 6  
Month to date cooling degree days 97  
Year to date cooling degree days 133  
Since 1 June cooling degree days 97  
Growing Degree Days 20 (Base 50)    
Moisture  
Dew Point 63 °F    
Average Humidity 79    
Maximum Humidity 94    
Minimum Humidity 57    
Precipitation  
Precipitation 0.24 in 0.18 in - ()
Month to date precipitation 3.62  
Sea Level Pressure  
Sea Level Pressure 29.87 in    
Wind  
Wind Speed 4 mph (SE)    
Max Wind Speed 17 mph    
Max Gust Speed 17 mph    
Visibility 9 miles    
Events Rain , Thunderstorm    
T = Trace of Precipitation, MM = Missing Value Source: NWS Daily Summary

Daily Weather History Graph

Daily Weather History Graph

Search for Another Location

Airport or City:

Trip Planner

Search our weather history database for the weather conditions in past years. The results will help you decide how hot, cold, wet, or windy it might be!

Date:

Astronomy

Jun. 24, 2013 Rise Set
Actual Time 5:39 AM CDT 9:05 PM CDT
Civil Twilight 5:03 AM CDT 9:41 PM CDT
Nautical Twilight 4:16 AM CDT 10:28 PM CDT
Astronomical Twilight 3:16 AM CDT 11:28 PM CDT
Moon 10:03 PM CDT (6/24) 7:11 AM CDT (6/24)
Length of Visible Light 16h 38m
Length of Day
15h 26m
Full, 98% of the Moon is Illuminated
Jun 24
Full
Jun 29
Last Quarter
Jul 8
New
Jul 15
First Quarter
Jul 22
Full

Hourly Weather History & Observations

Time (CDT) Temp. Dew Point Humidity Pressure Visibility Wind Dir Wind Speed Gust Speed Precip Events Conditions
12:14 AM 69.8 °F 62.6 °F 78% 29.94 in 10.0 mi Calm Calm - N/A   Clear
12:34 AM 68.0 °F 62.6 °F 83% 29.94 in 10.0 mi Calm Calm - N/A   Clear
12:53 AM 68.0 °F 62.6 °F 83% 29.94 in 10.0 mi Calm Calm - N/A   Scattered Clouds
1:14 AM 66.2 °F 62.6 °F 88% 29.94 in 10.0 mi Calm Calm - N/A   Clear
1:34 AM 66.2 °F 62.6 °F 88% 29.94 in 10.0 mi Calm Calm - N/A   Clear
1:53 AM 64.4 °F 62.6 °F 94% 29.94 in 10.0 mi Calm Calm - N/A   Clear
2:14 AM 64.4 °F 62.6 °F 94% 29.93 in 10.0 mi Calm Calm - N/A   Clear
2:33 AM 64.4 °F 62.6 °F 94% 29.92 in 10.0 mi Calm Calm - N/A   Clear
2:54 AM 64.4 °F 60.8 °F 88% 29.91 in 10.0 mi Calm Calm - N/A   Clear
3:14 AM 64.4 °F 60.8 °F 88% 29.91 in 10.0 mi Calm Calm - N/A   Clear
3:34 AM 64.4 °F 62.6 °F 94% 29.91 in 4.0 mi Calm Calm - N/A   Clear
3:54 AM 64.4 °F 62.6 °F 94% 29.92 in 10.0 mi Calm Calm - N/A   Clear
4:14 AM 64.4 °F 60.8 °F 88% 29.92 in 10.0 mi Calm Calm - N/A   Clear
4:34 AM 64.4 °F 60.8 °F 88% 29.91 in 10.0 mi Calm Calm - N/A   Clear
4:54 AM 64.4 °F 60.8 °F 88% 29.91 in 10.0 mi Calm Calm - N/A   Clear
5:14 AM 64.4 °F 60.8 °F 88% 29.91 in 10.0 mi Calm Calm - N/A   Clear
5:34 AM 62.6 °F 60.8 °F 94% 29.91 in 7.0 mi Calm Calm - N/A   Clear
5:54 AM 62.6 °F 59.0 °F 88% 29.92 in 7.0 mi Calm Calm - N/A   Clear
6:14 AM 62.6 °F 59.0 °F 88% 29.92 in 7.0 mi Calm Calm - N/A   Scattered Clouds
6:33 AM 64.4 °F 60.8 °F 88% 29.92 in 7.0 mi ESE 3.5 mph - N/A   Mostly Cloudy
6:54 AM 66.2 °F 62.6 °F 88% 29.90 in 7.0 mi East 3.5 mph - N/A   Overcast
7:14 AM 68.0 °F 64.4 °F 88% 29.88 in 10.0 mi ENE 4.6 mph - N/A   Overcast
7:33 AM 69.8 °F 64.4 °F 83% 29.88 in 10.0 mi East 4.6 mph - N/A   Overcast
7:54 AM 69.8 °F 64.4 °F 83% 29.89 in 10.0 mi East 5.8 mph - N/A   Mostly Cloudy
8:14 AM 71.6 °F 64.4 °F 78% 29.91 in 10.0 mi Calm Calm - N/A   Mostly Cloudy
8:33 AM 71.6 °F 64.4 °F 78% 29.92 in 10.0 mi ESE 4.6 mph - N/A   Overcast
8:54 AM 71.6 °F 64.4 °F 78% 29.92 in 10.0 mi East 3.5 mph - N/A   Overcast
9:14 AM 71.6 °F 64.4 °F 78% 29.92 in 10.0 mi SE 5.8 mph - N/A   Overcast
9:34 AM 71.6 °F 66.2 °F 83% 29.93 in 10.0 mi SE 6.9 mph - N/A   Overcast
9:54 AM 71.6 °F 66.2 °F 83% 29.92 in 10.0 mi SSE 6.9 mph - N/A   Overcast
10:13 AM 71.6 °F 68.0 °F 88% 29.92 in 7.0 mi SSE 6.9 mph - N/A   Overcast
10:34 AM 71.6 °F 68.0 °F 88% 29.93 in 2.5 mi South 8.1 mph - 0.01 in Rain , Thunderstorm Rain
10:54 AM 71.6 °F 68.0 °F 88% 29.92 in 2.5 mi SW 9.2 mph - 0.19 in Rain , Thunderstorm Thunderstorms and Rain
11:13 AM 71.6 °F 64.4 °F 78% 29.89 in 7.0 mi SSW 3.5 mph - 0.02 in Rain , Thunderstorm Thunderstorms and Rain
11:34 AM 71.6 °F 62.6 °F 73% 29.85 in 10.0 mi WNW 4.6 mph - 0.05 in Rain , Thunderstorm Light Thunderstorms and Rain
11:54 AM 71.6 °F 62.6 °F 73% 29.84 in 10.0 mi NNE 3.5 mph - 0.05 in   Scattered Clouds
12:13 PM 73.4 °F 64.4 °F 73% 29.81 in 10.0 mi NNE 11.5 mph - N/A   Clear
12:34 PM 77.0 °F 60.8 °F 57% 29.83 in 10.0 mi Calm Calm - N/A   Clear
12:54 PM 77.0 °F 64.4 °F 65% 29.88 in 10.0 mi SSE 9.2 mph - N/A   Clear
1:13 PM 73.4 °F 62.6 °F 69% 29.89 in 10.0 mi SSE 11.5 mph - N/A   Scattered Clouds
1:34 PM 71.6 °F 62.6 °F 73% 29.86 in 10.0 mi ESE 11.5 mph - N/A   Clear
1:54 PM 71.6 °F 64.4 °F 78% 29.85 in 10.0 mi ESE 12.7 mph - N/A   Clear
2:13 PM 73.4 °F 64.4 °F 73% 29.86 in 10.0 mi SE 11.5 mph - N/A   Clear
2:34 PM 73.4 °F 64.4 °F 73% 29.83 in 10.0 mi ESE 17.3 mph - N/A   Clear
2:54 PM 73.4 °F 62.6 °F 69% 29.85 in 10.0 mi SSE 13.8 mph 17.3 mph N/A   Clear
3:13 PM 71.6 °F 60.8 °F 69% 29.85 in 10.0 mi SSE 11.5 mph - N/A   Scattered Clouds
3:34 PM 71.6 °F 62.6 °F 73% 29.86 in 10.0 mi SE 9.2 mph - N/A   Scattered Clouds
3:54 PM 71.6 °F 62.6 °F 73% 29.85 in 10.0 mi SSE 8.1 mph - N/A   Scattered Clouds
4:13 PM 71.6 °F 62.6 °F 73% 29.85 in 10.0 mi South 6.9 mph - N/A   Scattered Clouds
4:34 PM 71.6 °F 62.6 °F 73% 29.85 in 10.0 mi South 4.6 mph - N/A   Mostly Cloudy
4:54 PM 75.2 °F 64.4 °F 69% 29.84 in 10.0 mi SSE 6.9 mph - N/A   Mostly Cloudy
5:13 PM 78.8 °F 64.4 °F 61% 29.84 in 10.0 mi South 12.7 mph - N/A   Scattered Clouds
5:34 PM 77.0 °F 62.6 °F 61% 29.83 in 10.0 mi SSE 12.7 mph - N/A   Scattered Clouds
5:54 PM 77.0 °F 62.6 °F 61% 29.83 in 10.0 mi SSE 15.0 mph - N/A   Mostly Cloudy
6:14 PM 75.2 °F 62.6 °F 65% 29.83 in 10.0 mi SSE 15.0 mph - N/A   Overcast
6:34 PM 73.4 °F 62.6 °F 69% 29.83 in 10.0 mi SSE 8.1 mph - N/A   Overcast
6:53 PM 73.4 °F 62.6 °F 69% 29.83 in 10.0 mi SSE 8.1 mph - N/A   Overcast
7:14 PM 73.4 °F 62.6 °F 69% 29.83 in 10.0 mi SSE 8.1 mph - N/A   Overcast
7:33 PM 73.4 °F 62.6 °F 69% 29.83 in 10.0 mi SSE 5.8 mph - N/A   Mostly Cloudy
7:54 PM 73.4 °F 62.6 °F 69% 29.82 in 10.0 mi SSE 8.1 mph - N/A   Overcast
8:14 PM 73.4 °F 64.4 °F 73% 29.82 in 10.0 mi SSE 8.1 mph - N/A   Scattered Clouds
8:33 PM 71.6 °F 64.4 °F 78% 29.82 in 10.0 mi SSE 6.9 mph - N/A   Clear
8:54 PM 71.6 °F 64.4 °F 78% 29.81 in 10.0 mi SSE 5.8 mph - N/A   Clear
9:14 PM 71.6 °F 64.4 °F 78% 29.81 in 10.0 mi SSE 6.9 mph - N/A   Clear
9:33 PM 71.6 °F 64.4 °F 78% 29.81 in 10.0 mi SSE 4.6 mph - N/A   Clear
9:54 PM 69.8 °F 64.4 °F 83% 29.82 in 10.0 mi SSE 5.8 mph - N/A   Clear
10:14 PM 69.8 °F 64.4 °F 83% 29.82 in 10.0 mi SSE 5.8 mph - N/A   Mostly Cloudy
10:33 PM 71.6 °F 64.4 °F 78% 29.83 in 10.0 mi SE 4.6 mph - N/A   Overcast
10:54 PM 71.6 °F 64.4 °F 78% 29.84 in 10.0 mi SSE 5.8 mph - N/A   Overcast
11:14 PM 69.8 °F 64.4 °F 83% 29.83 in 10.0 mi SSE 8.1 mph - N/A   Overcast
11:33 PM 69.8 °F 64.4 °F 83% 29.83 in 10.0 mi SSE 6.9 mph - N/A   Scattered Clouds
11:54 PM 69.8 °F 64.4 °F 83% 29.82 in 10.0 mi SE 5.8 mph - N/A   Scattered Clouds